2021-022AP (48085 NORAD) Tracking and Keplerian Element Data

This shows tracking and keplerian element data for the satellite.

Feedback or suggestion? Click here.




ElementValue
Catalog48085
Name2021-022AP
Epoch Orbit343
Epoch Day110.70236354
Epoch Year2021
RAAN13.9962
Inclination97.5584
Eccentricity0.0021799
Argument of Perigee145.5525
Mean Anonmoly273.9443
Mean Motion15.05562347
Decay Rate1.116E-05
L11 48085U 21022AP 21110.70236354 .00001116 00000-0 81401-4 0 9994
L22 48085 97.5584 13.9962 0021799 145.5525 273.9443 15.05562347 3430

Live tracking and technical data element details for 2021-022AP (NORAD 48085). 2021-022AP can be tracked NOW for your location showing map with azimuth and elevation plus other details from your city location.

Track the satellite on the map from your city or location and see movement details for azimuth, elevation, latitude, longitude, range, height, and movement on the map or in text.







IsCatalogInMostPopularTable: catalog: 48085, numindb: 32
Update: records affected: 1



GetName: 48085 2021-022AP

Hit Count: updated at: Mon, 21 Jun 2021 03:39:40 GMT